User: anonymous   Login
Location: Key Biscayne
(25.6930°N, 80.1630°W)
Time: 16:49:10
(UTC-05:00)
Language:

CZ-2D R/B - Orbit

View from above orbital plane
View from above orbital plane
View from above satellite
View from above satellite

Ground track
Ground track

The orbit data is extracted from the following two-line orbital elements,

1 28738U 05024B   16337.71786436 +.00000724 +00000-0 +47296-4 0  9996
2 28738 097.5225 012.1956 0011315 327.0605 032.9919 15.10882298626122
Epoch (UTC): 02 December 2016 17:13:43
Eccentricity: 0.0011315
inclination: 97.5225°
perigee height: 525 km
apogee height: 541 km
right ascension of ascending node: 12.1956°
argument of perigee: 327.0605°
revolutions per day: 15.10882298
mean anomaly at epoch: 32.9919°
orbit number at epoch: 62612

The dashed part of the orbit path shows where the satellite is in the earth's shadow,  

DLR